Temp
76 75 75 74 72 72 73 75 76 75 75 75 74 74 72 72 72 71 71 70 68 68
76 76 76 74 73 73 72 75 74 76 75 74 74 74 73 72 72 72 71 70 70 68
77 77 77 72 72 71 72 73 74 74 75 74 74 75 73 73 73 72 71 71 70 69
77 77 77 75 74 74 72 73 73 73 74 74 75 75 74 73 73 73 72 72 71 70
77 77 76 76 75 75 73 71 73 73 74 75 76 75 75 74 75 73 72 73 72 72
77 76 75 76 76 76 75 73 73 73 74 75 75 75 75 76 75 74 75 74 73 74
77 77 77 77 77 76 76 75 74 75 76 76 76 76 76 76 76 75 75 75 74 75
77 78 77 77 76 77 76 77 77 76 75 76 77 78 76 76 76 75 75 75 75 75
77 77 76 76 76 75 76 76 77 76 77 75 78 72 70 76 77 77 76 75 74 76
77 76 76 76 75 75 75 76 75 76 77 76 77 68 68 70 79 77 77 77 77 76
77 76 77 76 76 75 76 75 75 76 76 76 78 67 66 68 77 79 78 78 78 78
78 77 77 76 76 77 77 76 76 77 76 77 77 65 64 66 75 77 78 79 79 78
79 78 77 77 77 79 78 78 79 78 78 74 78 66 62 65 77 75 76 78 79 69
80 80 80 79 79 79 78 79 78 78 79 79 76 77 61 60 77 78 77 77 78 79
MSLP
1013.71 1014.28 1014.76 1015.22 1015.90 1016.42 1016.70 1016.83 1016.76 1017.16 1017.52 1017.82 1018.06 1018.32 1018.78 1019.31 1019.64 1019.93 1020.27 1020.49 1020.50 1020.50
1013.04 1013.62 1014.16 1014.62 1015.15 1015.70 1016.09 1016.32 1016.48 1016.64 1017.23 1017.40 1017.60 1017.95 1018.34 1018.95 1019.29 1019.54 1019.82 1020.10 1020.36 1020.38
1012.10 1012.76 1013.39 1014.00 1014.56 1015.05 1015.46 1015.86 1016.16 1016.48 1016.86 1017.19 1017.26 1017.48 1018.04 1018.48 1018.78 1019.20 1019.46 1019.74 1020.01 1019.90
1011.49 1012.20 1012.72 1013.24 1013.86 1014.38 1014.89 1015.32 1015.76 1016.09 1016.45 1016.76 1016.90 1017.17 1017.65 1018.01 1018.37 1018.82 1019.11 1019.26 1019.46 1019.53
1010.68 1011.34 1012.06 1012.57 1013.07 1013.64 1014.18 1014.74 1015.15 1015.56 1015.92 1016.13 1016.36 1016.73 1017.14 1017.50 1017.81 1018.20 1018.60 1018.69 1019.08 1019.02
1009.94 1010.58 1011.22 1011.80 1012.42 1012.96 1013.48 1014.08 1014.51 1014.99 1015.26 1015.52 1015.86 1016.20 1016.45 1016.73 1017.01 1017.38 1017.66 1017.96 1018.24 1018.34
1008.96 1009.58 1010.28 1010.94 1011.60 1012.18 1012.68 1013.33 1013.76 1014.13 1014.50 1014.85 1015.14 1015.41 1015.72 1016.06 1016.31 1016.58 1016.84 1017.09 1017.36 1017.51
1008.01 1008.77 1009.51 1010.13 1010.65 1011.15 1011.74 1012.21 1012.64 1013.22 1013.54 1013.90 1014.33 1014.65 1015.03 1015.36 1015.61 1015.82 1016.02 1016.21 1016.44 1016.55
1007.16 1007.95 1008.55 1009.16 1009.79 1010.38 1010.80 1011.32 1011.83 1012.12 1012.52 1013.04 1013.30 1013.60 1013.96 1014.34 1014.70 1014.90 1015.07 1015.26 1015.38 1015.39
1006.52 1007.20 1007.71 1008.30 1009.08 1009.63 1010.00 1010.48 1010.84 1011.24 1011.62 1011.93 1012.29 1012.56 1012.89 1013.29 1013.64 1013.87 1013.94 1014.04 1014.18 1014.40
1005.78 1006.44 1007.08 1007.71 1008.18 1008.69 1009.20 1009.56 1009.87 1010.24 1010.60 1011.04 1011.23 1011.61 1011.90 1012.36 1012.85 1012.81 1012.81 1012.94 1013.10 1013.28
1004.79 1005.45 1006.24 1006.77 1007.10 1007.54 1008.11 1008.52 1008.77 1009.00 1009.44 1009.89 1010.21 1010.50 1010.90 1011.64 1011.97 1011.84 1011.74 1011.88 1012.02 1012.14
1003.93 1004.54 1005.13 1005.58 1006.02 1006.32 1007.04 1007.36 1007.75 1008.09 1008.34 1008.65 1009.02 1009.49 1010.00 1010.68 1010.96 1010.92 1011.12 1011.07 1010.93 1011.09
1002.96 1003.39 1004.18 1004.83 1005.39 1005.76 1006.16 1006.60 1006.96 1007.19 1007.37 1007.65 1008.05 1008.47 1008.99 1009.56 1009.89 1009.84 1009.97 1009.78 1009.81 1009.92
Wind_Speed
14 9 8 9 6 6 6 7 8 9 7 7 6 6 6 3 4 5 4 6 4 3
13 13 11 10 10 7 6 6 7 9 9 7 7 7 7 5 5 5 6 6 5 4
16 14 11 7 9 9 7 7 7 7 8 7 7 8 8 6 5 6 4 4 6 6
14 13 12 10 10 10 7 9 7 7 8 8 10 9 8 7 7 8 6 6 7 8
14 14 14 13 11 10 10 7 8 8 9 10 11 10 10 10 9 10 9 9 6 9
15 14 14 15 13 11 10 9 9 9 11 10 10 10 11 12 12 11 11 10 10 12
17 16 15 14 14 13 13 12 11 12 12 11 11 12 11 12 12 12 11 11 12 12
16 15 15 15 14 14 14 14 14 13 12 12 11 10 12 11 12 12 12 11 12 13
16 16 16 15 14 14 14 14 14 15 14 13 11 14 18 16 13 13 13 13 12 14
15 15 16 14 13 14 15 13 15 14 14 15 15 17 20 21 14 13 14 15 14 12
15 15 14 14 15 14 13 14 14 14 14 14 13 16 19 20 18 15 15 16 16 16
16 16 14 15 16 14 13 13 14 14 15 15 14 17 19 16 15 16 17 15 15 16
15 16 16 16 16 14 13 14 11 13 14 16 15 15 18 17 11 14 11 14 16 17
17 17 15 14 12 12 12 12 12 13 12 14 14 14 18 20 14 12 11 12 11 11
Wind_Direction
193 191 193 189 183 196 196 204 197 200 200 202 185 194 176 182 191 185 195 205 212 210
195 195 196 188 189 195 187 196 192 196 202 196 191 186 184 190 203 190 194 211 206 215
198 199 195 174 181 187 194 201 188 191 196 189 198 191 186 196 199 197 201 200 204 224
198 197 196 187 193 196 182 193 195 189 191 189 199 201 194 200 196 203 211 208 205 226
193 193 197 204 195 192 194 182 190 187 193 204 206 200 201 206 201 204 209 220 210 232
195 192 195 201 199 195 192 187 199 191 204 208 206 201 204 208 210 204 213 213 215 229
196 197 199 199 201 199 200 197 203 206 213 206 204 208 208 208 213 214 215 215 215 224
196 198 200 201 200 204 202 206 210 208 209 206 203 205 206 210 214 217 219 217 218 224
195 196 200 202 201 201 206 206 210 216 213 209 212 205 201 202 212 216 220 221 221 227
196 199 202 201 199 203 206 206 213 215 216 215 215 204 203 206 215 217 222 226 229 230
195 199 199 199 204 203 203 207 212 217 217 218 220 201 206 205 218 226 226 226 227 231
195 197 194 200 205 204 203 208 213 215 215 216 222 205 204 197 219 230 235 232 229 230
193 198 198 200 205 205 205 215 213 220 218 217 222 205 200 197 217 230 235 237 240 227
195 201 198 201 204 205 206 211 214 221 221 220 213 217 198 198 216 228 232 236 239 238